#timestamp,LO_Frequency,Hit,StdDev 
1515135615.1,286047002.7,Y
1515135635.9,286047000.9,P
1515135655.7,286047001.0,P
1515135675.5,286047000.3,N
1515135695.4,286047000.6,N
1515135715.2,286046999.9,N
1515135735.0,286047000.3,N
1515135735.9,286047000.3,N
1515135755.8,286046999.9,N
1515135775.6,286047000.4,N
1515135795.5,286046999.9,N
1515135815.3,286046999.0,N
1515135835.1,286046996.8,Y
1515135855.9,286046996.7,P
1515135875.7,286046999.4,N
1515135895.6,286046996.9,N
1515135915.5,286046998.6,N
1515135935.3,286046998.2,N
1515135955.1,286046998.1,N
1515135975.9,286046998.8,N
1515135995.7,286047001.0,N
1515136015.6,286047001.2,N
1515136035.4,286047001.1,N
1515136055.2,286046998.7,N
1515136075.1,286046999.2,N
1515136076.0,286046999.2,N
1515136095.8,286046998.4,N
1515136115.7,286046999.1,N
1515136135.5,286046996.9,N
1515136155.3,286046997.2,N
1515136175.2,286046997.2,N
1515136195.9,286046997.1,N
1515136215.7,286046995.5,Y
1515136235.6,286046998.8,P
1515136255.4,286046998.3,P
1515136275.3,286046998.2,P
1515136295.1,286046999.1,Y
1515136315.8,286046998.1,P
1515136335.7,286046998.1,P
1515136355.5,286047000.5,N
1515136375.4,286047000.0,N
1515136395.2,286047000.2,N
1515136415.0,286047002.3,N
1515136415.9,286047002.3,N
1515136435.8,286047000.4,N
1515136455.6,286047000.4,N
1515136475.4,286046999.8,N
1515136495.3,286047004.4,Y
1515136515.1,286047003.3,P
1515136535.9,286047004.4,N
1515136555.7,286047001.7,N
1515136575.5,286047002.6,N
1515136595.4,286047001.9,N
1515136615.2,286047004.3,Y
1515136635.1,286046999.9,P
1515136636.0,286046999.9,N
1515136655.8,286047002.2,N
1515136675.6,286047002.8,N
1515136695.5,286047001.1,N
1515136715.3,286047000.2,N
1515136735.1,286047000.0,N
1515136755.9,286046998.3,N
1515136775.7,286046999.4,N
1515136795.6,286046999.0,N
1515136815.4,286046999.4,N
1515136835.2,286046998.8,N
1515136855.1,286046998.4,N
1515136856.0,286046998.4,N
1515136875.8,286046998.9,N
1515136895.7,286046998.3,N
1515136915.5,286046998.2,N
1515136935.3,286047000.9,N
1515136955.2,286047000.4,N
1515136975.0,286047000.9,N
1515136975.9,286047000.9,N
1515136995.7,286047001.1,N
1515137015.6,286046999.4,N
1515137035.4,286046998.9,N
1515137055.3,286046999.3,N
1515137075.1,286046999.5,N
1515137076.0,286046999.5,N
1515137095.8,286046999.0,N
1515137115.7,286046996.5,N
1515137135.5,286046997.7,N
1515137155.3,286046995.0,Y
1515137175.2,286046994.9,P
1515137195.0,286046999.6,N
1515137195.9,286046999.6,N
1515137215.8,286046999.1,N
1515137235.6,286046998.7,N
1515137255.4,286047001.1,N
1515137275.3,286047000.6,N
1515137295.1,286047001.8,N
1515137315.9,286047002.6,N
1515137335.7,286047001.9,N
1515137355.5,286047004.0,N
1515137375.3,286047002.0,N
1515137395.2,286046999.9,N
1515137415.9,286047002.7,N
1515137435.7,286047002.0,N
1515137455.6,286047002.7,N
1515137475.4,286047001.6,N
1515137495.3,286046999.8,N
1515137515.1,286047002.5,N
1515137516.0,286047002.5,N
1515137535.8,286047001.8,N
1515137555.7,286047001.5,N
1515137575.5,286047002.7,N
1515137595.4,286047002.3,N
1515137615.2,286047002.3,N
1515137635.0,286047002.6,N
1515137635.9,286047002.6,N
1515137655.8,286047002.0,N
1515137675.6,286047001.3,N
1515137695.5,286047002.0,N
1515137715.3,286047001.3,N
1515137735.1,286047002.3,N
1515137755.9,286047002.0,N
1515137775.7,286046998.1,N
1515137795.5,286047000.4,N
1515137815.4,286047000.6,N
1515137835.2,286046999.8,N
1515137855.1,286047001.7,N
1515137856.0,286047001.7,N
1515137905.8,286047001.7,E
1515137915.8,286046999.9,N
1515137935.6,286046998.5,P
1515137955.4,286046996.5,P
1515137975.3,286046998.6,N
1515137995.1,286047001.1,N
1515138015.8,286047000.7,N
1515138035.7,286046999.4,N
1515138055.5,286046997.0,N
1515138075.4,286046995.2,Y
1515138095.2,286046996.7,P
1515138115.0,286046999.3,N
1515138115.9,286046999.3,N
1515138135.8,286046999.4,N
1515138155.6,286046998.7,N
1515138175.4,286046998.5,N
1515138195.3,286047000.8,N
1515138215.1,286046998.7,N
1515138235.9,286046998.5,N
1515138255.7,286046999.0,N
1515138275.5,286046997.1,Y
1515138295.4,286046998.2,P
1515138315.2,286047000.6,N
1515138335.1,286047000.9,N
1515138336.0,286047000.9,N
1515138355.8,286047000.3,N
1515138375.6,286047002.5,N
1515138395.5,286047002.6,N
1515138415.3,286047001.8,N
1515138435.1,286047001.6,N
1515138455.9,286047002.6,N
1515138475.7,286046999.7,N
1515138495.6,286047002.7,N
1515138515.4,286047002.2,N
1515138535.2,286047003.9,N
1515138555.1,286047004.1,N
1515138556.0,286047004.1,N
1515138575.8,286047003.8,N
1515138595.7,286047001.8,N
1515138615.5,286047002.2,N
1515138635.3,286047001.7,N
1515138655.2,286047002.6,N
1515138675.9,286047002.0,N
1515138695.7,286047002.5,N
1515138715.6,286047002.4,N
1515138735.4,286047001.5,N
1515138755.3,286047002.3,N
1515138775.1,286047003.9,N
1515138776.0,286047003.9,N
1515138795.8,286047001.5,N
1515138815.7,286047002.5,N
1515138835.5,286047001.9,N
1515138855.3,286047002.5,N
1515138875.2,286046999.8,N
1515138895.0,286046999.8,N
1515138895.9,286046999.8,N
1515138915.8,286047001.0,N
1515138935.6,286047000.6,N
1515138955.4,286047000.4,N
1515138975.3,286046999.8,N
1515138995.1,286047002.0,N
1515139015.8,286047002.1,N
1515139035.7,286046999.7,N
1515139055.5,286047002.4,N
1515139075.4,286047002.0,N
1515139095.2,286047002.0,N
1515139115.0,286047000.3,N
1515139115.9,286047000.3,N
1515139135.8,286047002.7,N
1515139155.6,286047001.7,N
1515139175.5,286047004.1,Y
1515139195.3,286046999.7,P
